Flag for Laos Weather past 2 weeks in Vientiane, Laos

Now
79 °F

Rain. Partly sunny.


Feels Like: 82 °F
Forecast: 72 / 81 °F
Wind: 5 mph from Southwest

Location: Vientiane Airport

Current Time: Sep 2, 2014 at 2:47:09 PM

Latest Report: Sep 2, 2014 at 2:00 PM


Visibility: 4 mi

Pressure: 29.74 "Hg

Humidity: 89%

Dew point: 75 °F

Location of VientianeLocation

Historic Weather in Vientiane — Graph

°F

Vientiane temperature yesterday

Maximum temperature yesterday: 90 °F (at 1:00 PM)
Minimum temperature yesterday: 79 °F (at 6:00 AM)
Average temperature yesterday: 84 °F

Past Weeks' High & Low Weather Summary

 TemperatureHumidityPressure
High91 °F (Aug 18, 2:00 PM)100% (Aug 22, 6:00 AM)29.86 "Hg (Aug 22, 6:00 AM)
Low73 °F (Aug 26, 6:00 AM)59% (Aug 26, 5:00 PM)29.59 "Hg (Sep 1, 4:00 PM)
Average83 °F81%29.74 "Hg
* Reported Aug 18 1:00 PM — Sep 2 1:30 PM, Vientiane, Weather by CustomWeather, © 2014

Note: Actual official high and low records may vary slightly from our data, if they occured in-between our weather recording intervals... More about our weather records

Advertising

Vientiane weather history for previous 24 hours

 ConditionsComfort  
Time TempWeatherWind HumidityBarometerVisibility
1:30 PM
Sep 2
79 °FLight rain. Partly sunny.2 mph89%29.74 "Hg4 mi
1:00 PM79 °FRain. Partly sunny.2 mph89%29.74 "Hg4 mi
12:30 PM77 °FPartly sunny.5 mph94%29.77 "Hg4 mi
12:00 PM77 °FPartly sunny.5 mph94%29.77 "Hg4 mi
11:00 AM75 °FRain. Partly sunny.5 mph94%29.80 "Hg2 mi
10:30 AM75 °FLight rain. Partly sunny.2 mph94%29.77 "Hg2 mi
9:30 AM75 °FRain. Broken clouds.2 mph94%29.80 "Hg2 mi
9:00 AM75 °FRain. Broken clouds.2 mph94%29.80 "Hg2 mi
8:30 AM75 °FLight rain. Broken clouds.2 mph94%29.77 "Hg2 mi
8:00 AM75 °FRain. Broken clouds.2 mph94%29.77 "Hg2 mi
7:30 AM75 °FDrizzle. Partly sunny.2 mph94%29.77 "Hg3 mi
7:00 AM75 °FThunderstorms. Partly sunny.2 mph94%29.77 "Hg1 mi
6:30 AM75 °FThunderstorms. Partly sunny.2 mph94%29.74 "Hg1 mi
6:00 AM75 °FThunderstorms. Partly sunny.2 mph94%29.74 "Hg1 mi
11:00 PM
Sep 1
81 °FFog.2 mph84%29.71 "Hg2 mi
10:30 PM81 °FThunderstorms. Passing clouds.2 mph84%29.71 "Hg2 mi
10:00 PM81 °FThunderstorms. Passing clouds.2 mph84%29.71 "Hg2 mi
9:30 PM82 °FFog.5 mph89%29.68 "Hg2 mi
9:00 PM82 °FThunderstorms. Passing clouds.7 mph89%29.68 "Hg2 mi
8:30 PM82 °FFog.2 mph84%29.65 "Hg2 mi
8:00 PM82 °FFog.2 mph84%29.65 "Hg2 mi
7:30 PM84 °FFog.2 mph79%29.65 "Hg2 mi
7:00 PM84 °FFog.2 mph79%29.65 "Hg3 mi
6:30 PM86 °FPassing clouds.2 mph75%29.62 "Hg4 mi
6:00 PM86 °FPartly sunny.2 mph75%29.62 "HgN/A
4:00 PM90 °FPartly sunny.2 mph67%29.59 "HgN/A
3:30 PM90 °FBroken clouds.2 mph67%29.62 "HgN/A
3:00 PM90 °FBroken clouds.2 mph67%29.62 "HgN/A
2:30 PM90 °FBroken clouds.2 mph63%29.65 "HgN/A
2:00 PM90 °FBroken clouds.2 mph63%29.65 "HgN/A
Weather by CustomWeather, © 2014

See weather overviewHow to use our weather pages